Location: Bodest
(46.3000°N, 22.5667°E)
Time: 14:03:42
(UTC+00:00)

Cosmos 1844 Rocket - Pass Details

Date: 04 June 2022
Orbit: 826 x 843 km, 71.0° (Epoch: 28 June)

Event Time Altitude Azimuth Distance (km) Brightness Sun altitude
Rises 19:44:12 0° 330° (NNW) 3,379 7.8 -11.8°
Reaches altitude 10° 19:46:40 10° 327° (NNW) 2,440 6.6 -12.1°
Maximum altitude 19:52:08 59° 249° (WSW) 955 3.1 -12.7°
Enters shadow 19:56:47 14° 173° (S) 2,130 4.3 -13.1°
